When you browse on this site, cookies collect data to enhance your experience and personalize the content and advertising you see.
Visit our Privacy Policy to learn more. By continuing to use the site, you agree to this use of cookies and data.
  • In Netherlands
  • List of Countries
  • For 7 days
  • Water Temperature
  • Weather Map
  • Weather Widgets
  • user-avatar
    Login

    Hourly Weather Tarin Kowt

    Today, 26 May, Tuesday

    Time Temperature Precipitation Wind Pressure Humidity
    00:00 +25°C° 0 mm 1 mps 618 mmHg 12%
    01:00 +24°C° 0 mm 1 mps 617 mmHg 13%
    02:00 +23°C° 0 mm 1 mps 617 mmHg 13%
    03:00 +22°C° 0 mm 1 mps 616 mmHg 14%
    04:00 +22°C° 0 mm 1 mps 616 mmHg 15%
    05:00 +23°C° 0 mm 1 mps 617 mmHg 14%
    06:00 +25°C° 0 mm 1 mps 618 mmHg 13%
    07:00 +26°C° 0 mm 1 mps 619 mmHg 12%
    08:00 +28°C° 0 mm 1 mps 619 mmHg 11%
    09:00 +29°C° 0 mm 1 mps 620 mmHg 11%
    10:00 +30°C° 0 mm 1 mps 620 mmHg 10%
    11:00 +31°C° 0 mm 2 mps 620 mmHg 9%
    12:00 +33°C° 0 mm 3 mps 620 mmHg 8%
    13:00 +34°C° 0 mm 4 mps 620 mmHg 8%
    14:00 +34°C° 0 mm 4 mps 619 mmHg 8%
    15:00 +34°C° 0 mm 4 mps 619 mmHg 8%
    16:00 +34°C° 0 mm 5 mps 619 mmHg 8%
    17:00 +32°C° 0 mm 4 mps 618 mmHg 8%
    18:00 +30°C° 0 mm 3 mps 618 mmHg 9%
    19:00 +29°C° 0 mm 2 mps 618 mmHg 10%
    20:00 +28°C° 0 mm 2 mps 618 mmHg 11%
    21:00 +27°C° 0 mm 2 mps 618 mmHg 12%
    22:00 +26°C° 0 mm 1 mps 618 mmHg 12%
    23:00 +25°C° 0 mm 1 mps 617 mmHg 14%

    Tomorrow, 27 May, Wednesday

    Time Temperature Precipitation Wind Pressure Humidity
    00:00 +24°C° 0 mm 1 mps 617 mmHg 15%
    01:00 +21°C° 0 mm 0 mps 616 mmHg 17%
    02:00 +23°C° 0 mm 1 mps 616 mmHg 18%
    03:00 +23°C° 0 mm 1 mps 616 mmHg 18%
    04:00 +21°C° 0 mm 2 mps 615 mmHg 19%
    05:00 +23°C° 0 mm 2 mps 616 mmHg 19%
    06:00 +24°C° 0 mm 2 mps 617 mmHg 20%
    07:00 +26°C° 0 mm 3 mps 618 mmHg 20%
    08:00 +27°C° 0 mm 3 mps 618 mmHg 19%
    09:00 +28°C° 0 mm 3 mps 618 mmHg 17%
    10:00 +29°C° 0 mm 3 mps 618 mmHg 16%
    11:00 +30°C° 0 mm 3 mps 618 mmHg 15%
    12:00 +31°C° 0 mm 3 mps 618 mmHg 13%
    13:00 +33°C° 0 mm 3 mps 618 mmHg 12%
    14:00 +33°C° 0 mm 3 mps 617 mmHg 11%
    15:00 +33°C° 0 mm 3 mps 617 mmHg 11%
    16:00 +33°C° 0 mm 3 mps 617 mmHg 10%
    17:00 +32°C° 0 mm 4 mps 617 mmHg 12%
    18:00 +30°C° 0 mm 4 mps 616 mmHg 13%
    19:00 +29°C° 0 mm 5 mps 616 mmHg 15%
    20:00 +28°C° 0 mm 4 mps 616 mmHg 17%
    21:00 +26°C° 0 mm 4 mps 616 mmHg 20%
    22:00 +25°C° 0 mm 3 mps 615 mmHg 22%
    23:00 +24°C° 0 mm 3 mps 615 mmHg 24%

    Day after tomorrow, 28 May, Thursday

    Time Temperature Precipitation Wind Pressure Humidity
    00:00 +24°C° 0 mm 3 mps 615 mmHg 25%
    01:00 +22°C° 0 mm 3 mps 615 mmHg 26%
    02:00 +21°C° 0 mm 3 mps 614 mmHg 27%
    03:00 +21°C° 0 mm 3 mps 614 mmHg 29%
    04:00 +20°C° 0 mm 3 mps 613 mmHg 30%
    05:00 +21°C° 0 mm 3 mps 614 mmHg 28%
    06:00 +22°C° 0 mm 4 mps 614 mmHg 27%
    07:00 +23°C° 0 mm 4 mps 615 mmHg 25%
    08:00 +25°C° 0 mm 4 mps 615 mmHg 23%
    09:00 +27°C° 0 mm 4 mps 616 mmHg 21%
    10:00 +28°C° 0 mm 4 mps 616 mmHg 19%
    11:00 +29°C° 0 mm 4 mps 616 mmHg 17%
    12:00 +30°C° 0 mm 3 mps 616 mmHg 15%
    13:00 +31°C° 0 mm 3 mps 616 mmHg 13%
    14:00 +32°C° 0 mm 4 mps 615 mmHg 14%
    15:00 +32°C° 0 mm 5 mps 615 mmHg 14%
    16:00 +32°C° 0 mm 6 mps 615 mmHg 15%
    17:00 +30°C° 0 mm 5 mps 615 mmHg 16%
    18:00 +29°C° 0 mm 5 mps 615 mmHg 17%
    19:00 +28°C° 0 mm 5 mps 615 mmHg 18%
    20:00 +27°C° 0 mm 4 mps 615 mmHg 22%
    21:00 +25°C° 0 mm 4 mps 614 mmHg 27%
    22:00 +24°C° 0 mm 3 mps 614 mmHg 31%
    23:00 +24°C° 0 mm 3 mps 614 mmHg 32%

    29 May, Friday

    Time Temperature Precipitation Wind Pressure Humidity
    00:00 +22°C° 0 mm 3 mps 614 mmHg 32%
    01:00 +23°C° 0 mm 2 mps 614 mmHg 33%
    02:00 +21°C° 0 mm 2 mps 613 mmHg 34%
    03:00 +21°C° 0 mm 2 mps 613 mmHg 35%
    04:00 +21°C° 0 mm 2 mps 613 mmHg 36%
    05:00 +23°C° 0 mm 2 mps 614 mmHg 33%
    06:00 +24°C° 0 mm 3 mps 614 mmHg 30%
    07:00 +25°C° 0 mm 3 mps 615 mmHg 28%
    08:00 +26°C° 0 mm 3 mps 615 mmHg 25%
    09:00 +28°C° 0 mm 4 mps 616 mmHg 22%
    10:00 +29°C° 0 mm 4 mps 616 mmHg 19%
    11:00 +30°C° 0 mm 3 mps 616 mmHg 18%
    12:00 +31°C° 0 mm 2 mps 616 mmHg 16%
    13:00 +32°C° 0 mm 1 mps 616 mmHg 14%
    14:00 +31°C° 0 mm 3 mps 616 mmHg 15%
    15:00 +32°C° 0 mm 4 mps 615 mmHg 16%
    16:00 +32°C° 0 mm 6 mps 615 mmHg 16%
    17:00 +30°C° 0 mm 5 mps 615 mmHg 18%
    18:00 +29°C° 0 mm 5 mps 615 mmHg 20%
    19:00 +28°C° 0 mm 5 mps 615 mmHg 22%
    20:00 +27°C° 0 mm 4 mps 615 mmHg 25%
    21:00 +26°C° 0 mm 4 mps 616 mmHg 28%
    22:00 +25°C° 0 mm 3 mps 616 mmHg 30%
    23:00 +24°C° 0 mm 3 mps 615 mmHg 33%

    30 May, Saturday

    Time Temperature Precipitation Wind Pressure Humidity
    00:00 +23°C° 0 mm 2 mps 615 mmHg 35%
    01:00 +21°C° 0 mm 2 mps 614 mmHg 38%
    02:00 +21°C° 0 mm 2 mps 614 mmHg 39%
    03:00 +20°C° 0 mm 2 mps 614 mmHg 40%
    04:00 +20°C° 0 mm 2 mps 614 mmHg 42%
    05:00 +21°C° 0 mm 3 mps 615 mmHg 39%
    06:00 +22°C° 0 mm 3 mps 615 mmHg 37%
    07:00 +24°C° 0 mm 3 mps 616 mmHg 34%
    08:00 +25°C° 0 mm 2 mps 616 mmHg 31%
    09:00 +27°C° 0 mm 2 mps 617 mmHg 27%
    10:00 +28°C° 0 mm 2 mps 617 mmHg 24%
    11:00 +29°C° 0 mm 2 mps 617 mmHg 20%
    12:00 +30°C° 0 mm 3 mps 617 mmHg 16%
    13:00 +33°C° 0 mm 3 mps 617 mmHg 12%
    14:00 +33°C° 0 mm 3 mps 617 mmHg 11%
    15:00 +33°C° 0 mm 3 mps 616 mmHg 10%
    16:00 +33°C° 0 mm 3 mps 616 mmHg 9%
    17:00 +31°C° 0 mm 2 mps 616 mmHg 10%
    18:00 +30°C° 0 mm 2 mps 616 mmHg 10%
    19:00 +29°C° 0 mm 1 mps 615 mmHg 11%
    20:00 +28°C° 0 mm 1 mps 615 mmHg 12%
    21:00 +27°C° 0 mm 1 mps 615 mmHg 13%
    22:00 +26°C° 0 mm 1 mps 615 mmHg 14%
    23:00 +25°C° 0 mm 1 mps 615 mmHg 13%

    31 May, Sunday

    Time Temperature Precipitation Wind Pressure Humidity
    00:00 +24°C° 0 mm 1 mps 615 mmHg 13%
    01:00 +24°C° 0 mm 1 mps 615 mmHg 13%
    02:00 +23°C° 0 mm 1 mps 615 mmHg 14%
    03:00 +21°C° 0 mm 2 mps 615 mmHg 15%
    04:00 +21°C° 0 mm 2 mps 615 mmHg 15%
    05:00 +23°C° 0 mm 2 mps 615 mmHg 14%
    06:00 +24°C° 0 mm 2 mps 616 mmHg 13%
    07:00 +26°C° 0 mm 2 mps 617 mmHg 12%
    08:00 +27°C° 0 mm 2 mps 617 mmHg 11%
    09:00 +28°C° 0 mm 2 mps 618 mmHg 10%
    10:00 +30°C° 0 mm 1 mps 618 mmHg 10%
    11:00 +31°C° 0 mm 2 mps 618 mmHg 8%
    12:00 +32°C° 0 mm 2 mps 618 mmHg 7%
    13:00 +34°C° 0 mm 2 mps 618 mmHg 6%
    14:00 +34°C° 0 mm 2 mps 618 mmHg 5%
    15:00 +34°C° 0 mm 3 mps 617 mmHg 4%
    16:00 +34°C° 0 mm 3 mps 617 mmHg 4%
    17:00 +32°C° 0 mm 2 mps 617 mmHg 5%
    18:00 +30°C° 0 mm 1 mps 616 mmHg 7%
    19:00 +29°C° 0 mm 1 mps 616 mmHg 8%
    20:00 +28°C° 0 mm 1 mps 616 mmHg 9%
    21:00 +27°C° 0 mm 2 mps 616 mmHg 9%
    22:00 +26°C° 0 mm 2 mps 616 mmHg 9%
    23:00 +25°C° 0 mm 2 mps 616 mmHg 10%
    Show more